Location: Costa Mesa
(33.6411°N, 117.9187°W)
Time: 02:15:06
(UTC+00:00)

Cosmos 1727 Rocket - Pass Details

Date: 10 September 2024
Orbit: 960 x 996 km, 82.9° (Epoch: 10 October)

Event Time Altitude Azimuth Distance (km) Brightness Sun altitude
Rises 13:03:30 0° 195° (SSW) 3,669 6.8 -6.7°
Reaches altitude 10° 13:06:03 10° 198° (SSW) 2,719 6.1 -6.2°
Maximum altitude 13:12:11 60° 278° (W) 1,106 4.1 -5.0°
Drops below altitude 10° 13:18:18 10° 358° (N) 2,710 6.4 -3.7°
Sets 13:20:51 0° 2° (N) 3,657 7.1 -3.2°
